(332010) = 2005 MT42

Discovered at Palomar on 2005-06-29 by NEAT.

Orbit

Orbit type: Hilda

Note: WebGL enabled browser required.

epoch2024-03-31.0
epoch JD2460400.5
perihelion date2021-12-19.39064
perihelion JD2459567.89064
argument of perihelion (°)144.88418
ascending node (°)198.83253
inclination (°)3.45066
eccentricity0.2281268
perihelion distance (AU)3.0864493
Tisserand w.r.t. Jupiter3.0
ΔV w.r.t. Earth (km/sec)10.8
semimajor axis (AU)3.9986480
mean anomaly (°)102.63024
mean daily motion (°/day)0.12326340
aphelion distance (AU)4.911
period (years)8.0
P-vector [x]0.95955048
P-vector [y]-0.27011624
P-vector [z]-0.07937316
Q-vector [x]0.28086543
Q-vector [y]0.89897562
Q-vector [z]0.33609143
absolute magnitude14.96
phase slope0.15
uncertainty0
referenceMPEC 2024-E179
observations used428
oppositions15
arc length (days)9153
first opposition used1998
last opposition used2023
residual rms (arc-secs)0.72
perturbers coarse indicatorM-v
perturbers precise indicator003Ek
first observation date used1998-10-27.0
last observation date used2023-11-18.0
computer nameMPCLINUX
JD of orbit computation2456966.799902
perihelion JD uncertainty (days)1.4621E-04
argument of perihelion uncertainty (°)8.6954E-05
ascending node uncertainty (°)8.3373E-05
inclination uncertainty (°)5.5336E-06
eccentricity uncertainty 4.2576E-08
perihelion distance uncertainty (AU)1.7656E-07
Minimum Orbit Intersection Distances (in AU)
for orbit epoch: 2460400.5, reference: E2024-E11
Mercury2.70364
Venus2.36316
Earth2.07969
Mars1.7082
Jupiter0.57869
Saturn4.43114
Uranus13.5361
Neptune25.5518

Observations

438 total observations over interval: 1998 10 27.42981 – 2023 11 18.530979
These data are available for download (format description).

Date (UT) J2000 RA J2000 Dec Magn Location Ref
1998 10 27.42981 02 51 27.76 +14 30 34.6 20.3 V 691 – Steward Observatory, Kitt Peak-Spacewatch MPS 181103
1998 10 27.45159 02 51 26.85 +14 30 29.5 20.1 V 691 – Steward Observatory, Kitt Peak-Spacewatch MPS 181103
1998 10 27.47337 02 51 25.96 +14 30 24.4 20.2 V 691 – Steward Observatory, Kitt Peak-Spacewatch MPS 181103
2005 06 29.40381 21 31 00.57 -10 08 22.1 20.1   644 – Palomar Mountain/NEAT MPS 137998
2005 06 29.41819 21 31 00.40 -10 08 22.0 20.2   644 – Palomar Mountain/NEAT MPS 137998
2005 06 29.42992 21 31 00.27 -10 08 21.9 20.3   644 – Palomar Mountain/NEAT MPS 137998
2005 06 29.43132 21 31 00.25 -10 08 21.8 19.9   644 – Palomar Mountain/NEAT MPS 137998
2005 06 29.44153 21 31 00.14 -10 08 22.0 20.0   644 – Palomar Mountain/NEAT MPS 137998
2005 06 29.45194 21 31 00.02 -10 08 22.1 19.9   644 – Palomar Mountain/NEAT MPS 137998
2005 07 05.45189 21 29 39.02 -10 10 33.3 19.5   644 – Palomar Mountain/NEAT MPS 137998
2005 07 05.46326 21 29 38.79 -10 10 33.7 19.3   644 – Palomar Mountain/NEAT MPS 137998
2005 07 05.47342 21 29 38.61 -10 10 34.1 19.4   644 – Palomar Mountain/NEAT MPS 137998
2005 07 09.40318 21 28 24.23 -10 14 07.7 20.2 V 691 – Steward Observatory, Kitt Peak-Spacewatch MPS 137998
2005 07 09.42066 21 28 23.83 -10 14 08.8 20.0 V 691 – Steward Observatory, Kitt Peak-Spacewatch MPS 137998
2005 07 09.43816 21 28 23.44 -10 14 09.9 20.2 V 691 – Steward Observatory, Kitt Peak-Spacewatch MPS 137998
2005 07 30.98649 21 17 31.65 -11 00 22.3 19.1 R 185 – Observatoire Astronomique Jurassien-Vicques MPS 138907
2005 07 30.99962 21 17 31.17 -11 00 24.4 18.8 R 185 – Observatoire Astronomique Jurassien-Vicques MPS 138907
2005 07 31.01309 21 17 30.64 -11 00 24.1 18.8 R 185 – Observatoire Astronomique Jurassien-Vicques MPS 138907
2005 07 31.02639 21 17 30.29 -11 00 27.5 18.9 R 185 – Observatoire Astronomique Jurassien-Vicques MPS 138907
2005 08 06.27892 21 13 30.69 -11 20 23.7 19.2   644 – Palomar Mountain/NEAT MPS 139676
2005 08 06.30300 21 13 29.72 -11 20 28.5 19.0   644 – Palomar Mountain/NEAT MPS 139676
2005 08 06.32667 21 13 28.75 -11 20 33.7 19.0   644 – Palomar Mountain/NEAT MPS 139676
2005 08 25.26541 21 01 35.12 -12 27 15.2 19.9   644 – Palomar Mountain/NEAT MPS 139676
2005 08 25.28880 21 01 34.30 -12 27 19.8 19.6   644 – Palomar Mountain/NEAT MPS 139676
2005 08 25.31358 21 01 33.41 -12 27 25.2 19.4   644 – Palomar Mountain/NEAT MPS 139676
2005 10 27.09673 21 02 05.10 -13 57 40.7 20.1 V G96 – Mt. Lemmon Survey MPS 146086
2005 10 27.10227 21 02 05.31 -13 57 39.4 19.8 V G96 – Mt. Lemmon Survey MPS 146086
2005 10 27.10780 21 02 05.49 -13 57 39.5 20.5 V G96 – Mt. Lemmon Survey MPS 146086
2005 10 27.11348 21 02 05.74 -13 57 38.9 20.3 V G96 – Mt. Lemmon Survey MPS 146086
2006 09 25.42583 03 12 35.13 +16 28 48.5 20.5 V G96 – Mt. Lemmon Survey MPS 181103
2006 09 25.43262 03 12 35.02 +16 28 48.0 20.4 V G96 – Mt. Lemmon Survey MPS 181103
2006 09 25.43933 03 12 34.95 +16 28 47.4 20.9 V G96 – Mt. Lemmon Survey MPS 181103
2006 09 25.44598 03 12 34.84 +16 28 46.8 20.4 V G96 – Mt. Lemmon Survey MPS 181103
2006 10 11.36045 03 07 17.77 +15 49 33.0   691 – Steward Observatory, Kitt Peak-Spacewatch MPS 182483
2006 10 11.37785 03 07 17.28 +15 49 29.7   691 – Steward Observatory, Kitt Peak-Spacewatch MPS 182483
2006 10 11.39525 03 07 16.71 +15 49 26.6   691 – Steward Observatory, Kitt Peak-Spacewatch MPS 182483
2006 10 19.32529 03 03 02.79 +15 23 25.4 20.0 V 691 – Steward Observatory, Kitt Peak-Spacewatch MPS 182981
2006 10 19.34274 03 03 02.13 +15 23 21.7 20.0 V 691 – Steward Observatory, Kitt Peak-Spacewatch MPS 182981
2006 10 19.36018 03 03 01.51 +15 23 18.0 20.0 V 691 – Steward Observatory, Kitt Peak-Spacewatch MPS 182981
2006 11 08.39491 02 49 45.40 +14 07 45.9 20.1 R 644 – Palomar Mountain/NEAT MPS 190502
2006 11 08.41660 02 49 44.48 +14 07 40.5 20.1 R 644 – Palomar Mountain/NEAT MPS 190502
2006 11 08.43703 02 49 43.62 +14 07 35.6 20.0 R 644 – Palomar Mountain/NEAT MPS 190502
2006 11 09.31131 02 49 07.68 +14 04 16.0 19.6 R 644 – Palomar Mountain/NEAT MPS 190502
2006 11 09.33211 02 49 06.80 +14 04 11.3 19.7 R 644 – Palomar Mountain/NEAT MPS 190502
2006 11 09.35414 02 49 05.88 +14 04 06.3 20.0 R 644 – Palomar Mountain/NEAT MPS 190502
2006 11 15.26220 02 45 06.87 +13 42 06.9 19.5 V G96 – Mt. Lemmon Survey MPS 187020
2006 11 15.27002 02 45 06.55 +13 42 05.4 19.4 V G96 – Mt. Lemmon Survey MPS 187020
2006 11 15.27778 02 45 06.22 +13 42 03.6 19.3 V G96 – Mt. Lemmon Survey MPS 187020
2006 11 15.28582 02 45 05.90 +13 42 01.7 19.6 V G96 – Mt. Lemmon Survey MPS 187020
2006 11 17.30105 02 43 47.20 +13 34 50.0 19.6 V 703 – Catalina Sky Survey MPS 188711
2006 11 17.30803 02 43 46.95 +13 34 48.2 19.8 V 703 – Catalina Sky Survey MPS 188711
2006 11 17.31503 02 43 46.63 +13 34 46.7 19.4 V 703 – Catalina Sky Survey MPS 188711
2006 11 17.32206 02 43 46.30 +13 34 46.9 19.9 V 703 – Catalina Sky Survey MPS 188711
2006 11 27.17040 02 37 56.92 +13 02 57.0 20.4 V G96 – Mt. Lemmon Survey MPS 190502
2006 11 27.17874 02 37 56.64 +13 02 55.6 20.1 V G96 – Mt. Lemmon Survey MPS 190502
2006 11 27.18711 02 37 56.38 +13 02 54.4 20.2 V G96 – Mt. Lemmon Survey MPS 190502
2006 11 27.20518 02 37 55.81 +13 02 51.1 20.3 V G96 – Mt. Lemmon Survey MPS 190502
2010 03 13.27794 11 23 17.44 +01 45 13.2 21.3 V G96 – Mt. Lemmon Survey MPS 317917
2010 03 13.27852 11 23 17.44 +01 45 13.6 21.8 V G96 – Mt. Lemmon Survey MPS 317917
2010 03 13.28609 11 23 17.16 +01 45 15.5 21.2 V G96 – Mt. Lemmon Survey MPS 317917
2010 03 13.28669 11 23 17.12 +01 45 14.9 22.2 V G96 – Mt. Lemmon Survey MPS 317917
2010 03 13.29426 11 23 16.90 +01 45 17.0 21.9 V G96 – Mt. Lemmon Survey MPS 317917
2010 03 13.29485 11 23 16.87 +01 45 16.9 21.9 V G96 – Mt. Lemmon Survey MPS 317917
2010 03 13.30240 11 23 16.62 +01 45 19.0 21.5 V G96 – Mt. Lemmon Survey MPS 317917
2010 03 13.30301 11 23 16.58 +01 45 19.3 22.2 V G96 – Mt. Lemmon Survey MPS 317917
2010 04 10.23705 11 09 22.96 +03 27 06.0 21.9 V G96 – Mt. Lemmon Survey MPS 322220
2010 04 10.24572 11 09 22.82 +03 27 04.0 21.5 V G96 – Mt. Lemmon Survey MPS 322220
2010 04 10.25448 11 09 22.60 +03 27 04.2 21.2 V G96 – Mt. Lemmon Survey MPS 322220
2010 04 10.26330 11 09 22.39 +03 27 05.6 21.2 V G96 – Mt. Lemmon Survey MPS 322220
2012 05 29.31227 16 20 00.85 -17 59 08.7 20.3 V G96 – Mt. Lemmon Survey MPS 425998
2012 05 29.31813 16 20 00.60 -17 59 08.0 20.5 V G96 – Mt. Lemmon Survey MPS 425998
2012 05 29.32397 16 20 00.34 -17 59 06.9 20.3 V G96 – Mt. Lemmon Survey MPS 425998
2012 05 29.32979 16 20 00.09 -17 59 06.5 20.4 V G96 – Mt. Lemmon Survey MPS 425998
2012 06 09.25079 16 12 39.34 -17 37 11.3 20.3 V G96 – Mt. Lemmon Survey MPS 426483
2012 06 09.25906 16 12 39.02 -17 37 10.8 20.4 V G96 – Mt. Lemmon Survey MPS 426483
2012 06 09.26723 16 12 38.73 -17 37 09.7 20.5 V G96 – Mt. Lemmon Survey MPS 426483
2012 06 09.27538 16 12 38.37 -17 37 08.6 20.4 V G96 – Mt. Lemmon Survey MPS 426483
2012 06 15.25300 16 08 53.01 -17 26 24.6 20.2 V G96 – Mt. Lemmon Survey MPS 426483
2012 06 15.25816 16 08 52.80 -17 26 24.2 20.2 V G96 – Mt. Lemmon Survey MPS 426483
2012 06 15.26340 16 08 52.62 -17 26 23.4 20.2 V G96 – Mt. Lemmon Survey MPS 426483
2012 06 15.26862 16 08 52.40 -17 26 22.8 19.9 V G96 – Mt. Lemmon Survey MPS 426483
2012 06 23.24766 16 04 23.44 -17 14 09.8 20.5 V G96 – Mt. Lemmon Survey MPS 427812
2012 06 23.25404 16 04 23.19 -17 14 09.4 19.9 V G96 – Mt. Lemmon Survey MPS 427812
2012 06 23.26040 16 04 23.01 -17 14 09.0 20.7 V G96 – Mt. Lemmon Survey MPS 427812
2012 06 23.26678 16 04 22.83 -17 14 08.5 20.5 V G96 – Mt. Lemmon Survey MPS 427812
2013 07 13.35810 21 21 59.14 -10 40 17.7 19.8 V G96 – Mt. Lemmon Survey MPS 472630
2013 07 13.36458 21 21 59.00 -10 40 18.1 20.9 V G96 – Mt. Lemmon Survey MPS 472630
2013 07 13.37746 21 21 58.60 -10 40 19.2 19.9 V G96 – Mt. Lemmon Survey MPS 472630
2013 07 15.46659 21 21 02.202 -10 43 50.62 19.6 w F51 – Pan-STARRS 1, Haleakala MPS 472630
2013 07 15.49525 21 21 01.356 -10 43 53.72 19.6 w F51 – Pan-STARRS 1, Haleakala MPS 472630
2013 07 15.50956 21 21 00.934 -10 43 55.23 19.6 w F51 – Pan-STARRS 1, Haleakala MPS 472630
2013 08 08.43338 21 06 52.972 -11 48 58.67 18.9 w F51 – Pan-STARRS 1, Haleakala MPS 473663
